User: anonymous   Login
Location: Branche des Alpilles
(43.6087°N, 4.6976°E)
Time: 23:26:11
(UTC+00:00)
Language:

Cosmos 1867 - Orbit

View from above orbital plane
View from above orbital plane
View from above satellite
View from above satellite

Ground track
Ground track

The orbit data is extracted from the following two-line orbital elements,

1 18187U 87060A   21061.66696685 -.00000103  00000-0 -10880-5 0  9996
2 18187  65.0114  38.0630 0018038 282.0307  77.8756 14.31119311757820
Epoch (UTC): 02 March 2021 16:00:25
Eccentricity: 0.0018038
inclination: 65.0114°
perigee height: 775 km
apogee height: 801 km
right ascension of ascending node: 38.0630°
argument of perigee: 282.0307°
revolutions per day: 14.31119311
mean anomaly at epoch: 77.8756°
orbit number at epoch: 75782

The dashed part of the orbit path shows where the satellite is in the earth's shadow,  

DLR